User: anonymous   Login
Location: Unspecified
(0.0000°N, 0.0000°E)
Time: 15:15:45
(UTC+00:00)
Language:

Alouette 1 - Orbit

View from above orbital plane
View from above orbital plane
View from above satellite
View from above satellite

Ground track
Ground track

The orbit data is extracted from the following two-line orbital elements,

1 00424U 62049A   17023.49410990  .00000045  00000-0  41750-4 0  9990
2 00424  80.4656  50.2029 0024064  88.8551  18.3544 13.69073386711673
Epoch (UTC): 23 January 2017 11:51:31
Eccentricity: 0.0024064
inclination: 80.4656°
perigee height: 985 km
apogee height: 1020 km
right ascension of ascending node: 50.2029°
argument of perigee: 88.8551°
revolutions per day: 13.69073386
mean anomaly at epoch: 18.3544°
orbit number at epoch: 71167

The dashed part of the orbit path shows where the satellite is in the earth's shadow,  

DLR